AirNav   Air Wisconsin pilot careers
 
 1540 users online  

10D Winsted Municipal Airport
Winsted, Minnesota, USA

GOING TO WINSTED?


FAA INFORMATION EFFECTIVE 13 SEPTEMBER 2018

Location

FAA Identifier: 10D
Lat/Long: 44-56-59.8660N / 094-04-00.9030W
44-56.997767N / 094-04.015050W
44.9499628 / -94.0669175
(estimated)
Elevation: 1030 ft. / 314 m (estimated)
Variation: 04E (1985)
From city: 1 mile SW of WINSTED, MN
Time zone: UTC -5 (UTC -6 during Standard Time)
Zip code: 55395

Airport Operations

Airport use: Open to the public
Activation date: 11/1963
Control tower: no
ARTCC: MINNEAPOLIS CENTER
FSS: PRINCETON FLIGHT SERVICE STATION
NOTAMs facility: PNM (NOTAM-D service available)
Attendance: UNATNDD
Wind indicator: lighted
Segmented circle: no
Lights: SS-SR
Beacon: white-green (lighted land airport)
Operates sunset to sunrise.

Airport Communications

CTAF: 122.9
WX AWOS-3 at GYL (12 nm S): 119.625 (320-864-5830)
WX AWOS-3 at HCD (14 nm W): 118.525 (320-587-3343)
WX AWOS-3 at CFE (16 nm NE): 120.45 (763-684-0762)
WX AWOS-3 at MGG (18 nm N): 128.325 (320-963-3300)

Nearby radio navigation aids

VOR radial/distance  VOR name  Freq  Var
DWNr110/18.4DARWIN VORTAC109.0007E
FCMr285/27.6FLYING CLOUD VOR/DME117.7001E
GEPr242/31.7GOPHER VORTAC117.3006E
MSPr273/35.4MINNEAPOLIS VOR/DME115.3002E
STCr178/36.0ST CLOUD VOR/DME112.1003E

 
NDB name  Hdg/Dist  Freq  Var  ID
GLENCOE001/11.440703EGYL --. -.-- .-..

Airport Services

Fuel available: 100LL
FUEL AVAIL 24 HRS WITH CREDIT CARD.
Parking: tiedowns
Airframe service: NONE
Powerplant service: NONE
Bottled oxygen: NONE
Bulk oxygen: NONE

Runway Information

Runway 9/27

Dimensions: 3248 x 200 ft. / 990 x 61 m
Surface: turf, in good condition
Runway edge lights: low intensity
SVRL BKN OR BENT OVR.
Runway edge markings: RY 09/27 MARKED WITH YELLOW CONES.
RUNWAY 9  RUNWAY 27
Latitude: 44-57.231000N44-57.231000N
Longitude: 094-04.299833W094-03.547000W
Elevation: 1030.0 ft.1030.0 ft.
Traffic pattern: leftleft
Markings: nonenone
Obstructions: 16 ft. road, 530 ft. from runway, 33:1 slope to clear19 ft. trees, 224 ft. from runway, 124 ft. right of centerline, 11:1 slope to clear

Airport Ownership and Management from official FAA records

Ownership: Publicly-owned
Owner: CITY OF WINSTED
PO BOX 126
WINSTED, MN 55395
Phone 320-485-2366
Manager: DAVID MEYER
PO BOX 126
WINSTED, MN 55395
Phone (320) 485-2201
(612) 986-2184

Airport Operational Statistics

Aircraft based on the field: 46
Single engine airplanes: 39
Ultralights: 7
  • ULTRALIGHT ACTIVITY ON & INVOF ARPT.
    
Aircraft operations: avg 37/day *
74% local general aviation
26% transient general aviation
* for 12-month period ending 30 April 2018

Additional Remarks

BE ALERT OF ULTRALIGHT TRAFFIC IN LOWER PATTERN.
CAUTION: PARACHUTE JUMPING ON FIELD.

Instrument Procedures

There are no published instrument procedures at 10D.

Some nearby airports with instrument procedures:

KGYL - Glencoe Municipal Airport (12 nm S)
KHCD - Hutchinson Municipal Airport-Butler Field (14 nm W)
KCFE - Buffalo Municipal Airport (16 nm NE)
KMGG - Maple Lake Municipal Airport-Bill Mavencamp Sr Field (18 nm N)
KLJF - Litchfield Municipal Airport (21 nm NW)
 
Loc | Ops | Rwys | IFR | FBO | Links
Com | Nav | Svcs | Stats | Notes


 
Area around 10D (Winsted Municipal Airport)
 
Road maps at: MapQuest Bing Google
 
Aerial photo
WARNING: Photo may not be current or correct
Aerial photo of 10D (Winsted Municipal Airport)
Photo by R. Johnson
Photo taken 16-Nov-2009

Do you have a better or more recent aerial photo of Winsted Municipal Airport that you would like to share? If so, please send us your photo.

 
Sectional chart

 
Airport distance calculator
Flying to Winsted Municipal Airport? Find the distance to fly.

From to 10D

Sunrise and sunset
Times for 25-Sep-2018
 Local
(UTC-5)
 Zulu
(UTC)
Morning civil twilight06:3911:39
Sunrise07:0812:08
Sunset19:0800:08
Evening civil twilight19:3700:37

Current date and time
Zulu (UTC)  25-Sep-2018 20:28:19
Local (UTC-5)  25-Sep-2018 15:28:19
 
METAR
KGYL 
12nm S 
252015Z AUTO 30008KT 10SM -RA SCT025 BKN035 OVC090 12/07 A2996 RMK AO2 T01200073
KHCD 
14nm W 
252015Z AUTO 29007KT 10SM SCT020 BKN025 OVC038 12/08 A2998 RMK AO2 T01150083
KCFE 
16nm NE 
252015Z AUTO 29006KT 10SM -RA SCT026 BKN038 OVC080 11/07 A2997 RMK AO2 T01080070
KMGG 
17nm N 
252015Z AUTO 29005KT 10SM -DZ SCT024 SCT028 BKN036 12/09 A2997 RMK AO2 T01150086
KLJF 
20nm NW 
252015Z AUTO 30010G15KT 10SM SCT023 BKN033 BKN041 13/09 A2997 RMK AO2
TAF
NOTAMs
Click for the latest NOTAMs
NOTAMs are issued by the DoD/FAA and will open in a separate window not controlled by AirNav.

 

 
 

FBO, Fuel Providers, and Aircraft Ground Support

  
 Business Name 
 
 Contact 
 
 Services / Description 
 
Fuel Prices
 
Comments
  
City of Winsted 320-485-2201
no information available

If you are affiliated with City of Winsted and would like to show here your services, contact info, web link, logo, and more, click here
100LL
SS $4.55 
 Updated 13-Sep-2018
 
   write
SS=Self service
Update Fuel Prices
 

Would you like to see your business listed on this page?

 If your business provides an interesting product or service to pilots, flight crews, aircraft, or users of the Winsted Municipal Airport, you should consider listing it here.  To start the listing process, click on the button below
 
Add a business
 

Other Pages about Winsted Municipal Airport

Update a link
 
Copyright © AirNav, LLC. All rights reserved. Privacy Policy  Contact